Home > Weather > Osage City > Past weeks

Flag for U.S.A. Weather for the Past 2 Weeks in Osage City, Kansas, U.S.A.

Now
35 °F

Sunny.


Feels Like: 25 °F
Forecast: 22 / 57 °F
Wind: 16 mph from Southwest

Location: Forbes Field

Current Time: Feb 10, 2016 at 10:23:02 AM

Latest Report: Feb 10, 2016 at 9:53 AM


Visibility: 10 mi

Pressure: 30.08 "Hg

Humidity: 42%

Dew point: 14 °F

Location of Osage CityLocation

Historic Weather in Osage City — Graph

°F

Osage City Temperature Yesterday

Maximum temperature yesterday: 34 °F (at 12:53 AM)
Minimum temperature yesterday: 20 °F (at 10:53 PM)
Average temperature yesterday: 28 °F

High & Low Weather Summary for the Past Weeks

 TemperatureHumidityPressure
High68 °F (Jan 29, 2:53 PM)93% (Jan 30, 2:53 AM)30.45 "Hg (Jan 30, 2:53 AM)
Low17 °F (Feb 4, 4:53 AM)21% (Feb 7, 3:53 PM)29.32 "Hg (Feb 2, 5:04 AM)
Average37 °F62%30.02 "Hg
* Reported Jan 26 8:53 AM — Feb 10 8:53 AM, Osage City, Weather by CustomWeather, © 2016

Note: Actual official high and low records may vary slightly from our data, if they occured in-between our weather recording intervals... More about our weather records

Advertising

Osage City Weather History for the Previous 24 Hours

 ConditionsComfort  
Time TempWeatherWind HumidityBarometerVisibility
8:53 AM
Wed, Feb 10
30 °FSunny.15 mph51%30.10 "Hg10 mi
7:53 AM25 °FSunny.6 mph66%30.14 "Hg10 mi
6:53 AM24 °FClear.6 mph65%30.16 "Hg10 mi
5:53 AM27 °FOvercast.7 mph63%30.18 "Hg10 mi
4:53 AM25 °FOvercast.5 mph69%30.21 "Hg10 mi
3:53 AM24 °FOvercast.7 mph68%30.21 "Hg10 mi
2:53 AM22 °FOvercast.3 mph72%30.24 "Hg10 mi
1:53 AM21 °FPassing clouds.No wind71%30.25 "Hg10 mi
12:53 AM20 °FPartly cloudy.3 mph71%30.26 "Hg10 mi
11:53 PM
Tue, Feb 9
20 °FPassing clouds.5 mph68%30.29 "Hg10 mi
10:53 PM20 °FPassing clouds.7 mph65%30.30 "Hg10 mi
9:53 PM21 °FClear.8 mph62%30.31 "Hg10 mi
8:53 PM23 °FClear.8 mph55%30.32 "Hg10 mi
7:53 PM26 °FPassing clouds.9 mph46%30.32 "Hg10 mi
6:53 PM28 °FPassing clouds.14 mph41%30.32 "Hg10 mi
5:53 PM28 °FClear.14 mph39%30.31 "Hg10 mi
4:53 PM30 °FSunny.21 mph31%30.29 "Hg10 mi
3:53 PM31 °FSunny.23 mph30%30.27 "Hg10 mi
2:53 PM32 °FSunny.21 mph33%30.26 "Hg10 mi
1:53 PM33 °FSunny.25 mph29%30.24 "Hg10 mi
12:53 PM33 °FSunny.28 mph25%30.24 "Hg10 mi
11:53 AM32 °FSunny.25 mph29%30.25 "Hg10 mi
10:53 AM30 °FSunny.28 mph34%30.25 "Hg10 mi
Weather by CustomWeather, © 2016

See weather overviewHow to use our weather pages